TimeCDT,TemperatureF,Dew PointF,Humidity,Sea Level PressureIn,VisibilityMPH,Wind Direction,Wind SpeedMPH,Gust SpeedMPH,PrecipitationIn,Events,Conditions,WindDirDegrees,DateUTC
12:53 AM,75.9,61.0,60,30.01,10.0,SSE,4.6,-,N/A,,Clear,160,2013-08-22 05:53:00
1:53 AM,73.0,62.1,68,30.01,10.0,Calm,Calm,-,N/A,,Clear,0,2013-08-22 06:53:00
2:53 AM,75.0,61.0,62,30.00,10.0,ESE,3.5,-,N/A,,Clear,120,2013-08-22 07:53:00
3:53 AM,72.0,63.0,73,30.02,10.0,Calm,Calm,-,N/A,,Clear,0,2013-08-22 08:53:00
4:53 AM,69.1,64.0,84,30.01,10.0,Calm,Calm,-,N/A,,Clear,0,2013-08-22 09:53:00
5:53 AM,70.0,63.0,78,30.01,10.0,Calm,Calm,-,N/A,,Clear,0,2013-08-22 10:53:00
6:53 AM,71.1,64.0,78,30.03,10.0,East,4.6,-,N/A,,Clear,80,2013-08-22 11:53:00
7:53 AM,73.0,64.9,76,30.04,10.0,SE,3.5,-,N/A,,Clear,130,2013-08-22 12:53:00
8:53 AM,77.0,66.0,69,30.06,10.0,Calm,Calm,-,N/A,,Clear,0,2013-08-22 13:53:00
9:53 AM,82.9,66.9,58,30.06,10.0,South,4.6,-,N/A,,Clear,180,2013-08-22 14:53:00
10:53 AM,87.1,68.0,53,30.05,10.0,Variable,3.5,-,N/A,,Scattered Clouds,0,2013-08-22 15:53:00
11:53 AM,90.0,66.9,46,30.04,10.0,Variable,5.8,-,N/A,,Clear,0,2013-08-22 16:53:00
12:53 PM,93.9,66.0,40,30.01,10.0,SSE,12.7,17.3,N/A,,Scattered Clouds,160,2013-08-22 17:53:00
1:53 PM,93.0,64.9,39,29.99,10.0,South,12.7,21.9,N/A,,Scattered Clouds,180,2013-08-22 18:53:00
2:53 PM,95.0,64.9,37,29.96,10.0,South,13.8,19.6,N/A,,Mostly Cloudy,170,2013-08-22 19:53:00
3:53 PM,97.0,64.0,34,29.94,10.0,SSW,15.0,24.2,N/A,,Mostly Cloudy,200,2013-08-22 20:53:00
4:53 PM,96.1,62.1,32,29.92,10.0,Variable,5.8,18.4,N/A,,Clear,0,2013-08-22 21:53:00
5:53 PM,96.1,62.1,32,29.91,10.0,South,9.2,16.1,N/A,,Partly Cloudy,180,2013-08-22 22:53:00
6:53 PM,95.0,62.1,33,29.90,10.0,SSE,6.9,-,N/A,,Clear,150,2013-08-22 23:53:00
7:53 PM,91.0,64.0,41,29.91,10.0,SE,5.8,-,N/A,,Clear,140,2013-08-23 00:53:00
8:53 PM,86.0,64.0,48,29.93,10.0,SE,3.5,-,N/A,,Clear,130,2013-08-23 01:53:00
9:53 PM,82.9,64.0,53,29.95,10.0,East,3.5,-,N/A,,Clear,90,2013-08-23 02:53:00
10:53 PM,78.1,66.0,66,29.96,10.0,Calm,Calm,-,N/A,,Clear,0,2013-08-23 03:53:00
11:53 PM,79.0,64.9,62,29.97,10.0,East,5.8,-,N/A,,Clear,80,2013-08-23 04:53:00